STARLINK-5209 (54061 NORAD) Tracking and Keplerian Element Data

This shows tracking and keplerian element data for the satellite.

Feedback or suggestion? Click here.




ElementValue
Catalog54061
NameSTARLINK-5209
Epoch Orbit553
Epoch Day325.33334491
Epoch Year2022
RAAN348.8479
Inclination53.2172
Eccentricity0.0001129
Argument of Perigee68.1811
Mean Anonmoly199.6437
Mean Motion15.80341182
Decay Rate-0.00460605
L11 54061U 22136L 22325.33334491 -.00460605 00000+0 -25179-2 0 9992
L22 54061 53.2172 348.8479 0001129 68.1811 199.6437 15.80341182 5534



Live tracking and technical data element details for STARLINK-5209 (NORAD 54061). STARLINK-5209 can be tracked NOW for your location showing map with azimuth and elevation plus other details from your city location.







IsCatalogInMostPopularTable: catalog: 54061, numindb: 1
Update: records affected: 1



GetName: 54061 STARLINK-5209

Hit Count: updated at: Mon, 28 Nov 2022 22:05:11 GMT